Location: Barjac
(43.0660°N, 1.1345°E)
Time: 00:19:14
(UTC+00:00)

Daily predictions for brighter satellites

Satellite Brightness Start Highest point End
(mag) Time Altitude Azimuth Time Altitude Azimuth Time Altitude Azimuth
CENTAUR R/B 3.9 03:44:24 32° NNE 03:44:24 32° NNE 03:48:03 10° NE
NOSS 3-2 (C) 4.3 04:12:49 39° NNE 04:12:49 39° NNE 04:16:55 10° NNE
BREEZE-M DEB (TANK) 3.4 04:21:03 72° ESE 04:21:03 72° ESE 04:31:26 10° ESE
Envisat 4.4 04:20:38 10° NNE 04:25:19 36° E 04:29:59 10° SSE
Cosmos 2098 Rocket 3.8 04:32:19 52° ESE 04:32:33 52° E 04:37:29 10° NNE
Cosmos 2369 Rocket 2.2 04:34:16 70° NNE 04:34:16 70° NNE 04:39:14 10° NNE
Cosmos 2344 4.0 04:34:44 41° NNW 04:34:44 41° NNW 04:41:36 10° NNE
Meteor 1-26 Rocket 4.3 04:38:03 66° SSW 04:38:03 66° SSW 04:42:59 10° S
USA 238 DEB 4.1 04:39:33 43° NNW 04:39:33 43° NNW 04:45:14 10° NNE
USA 238 4.1 04:39:38 44° NNW 04:39:38 44° NNW 04:45:21 10° NNE
Cosmos 1656 Rocket 3.6 04:37:55 49° S 04:39:22 77° ESE 04:44:50 10° NNE
COSMO-SKYMED 1 3.7 04:36:56 10° SE 04:41:00 42° ENE 04:42:52 27° NNE
Cosmos 2279 Rocket 4.4 04:36:58 10° N 04:43:06 60° E 04:49:12 10° SSE
USA 215 4.0 04:38:03 10° E 04:44:11 45° NNE 04:46:50 31° NNW
H-2A R/B 4.2 04:41:46 10° NNE 04:46:53 30° SSE 04:49:05 10° S
Meteor 1-31 Rocket 4.3 04:42:20 10° NNE 04:45:58 36° E 04:49:35 10° SSE
DELTA 2 R/B (1) 3.9 04:46:42 49° SSW 04:47:34 55° S 04:52:58 10° E
Cosmos 1943 Rocket 3.8 04:54:23 20° N 04:54:23 20° N 04:56:27 10° N
CZ-2C R/B 3.0 04:47:07 10° SSE 04:52:31 63° ENE 04:57:38 11° N
Cosmos 1354 Rocket 4.4 04:52:42 10° S 04:57:53 64° ESE 05:03:08 10° NNE
Cosmos 1634 Rocket 3.9 04:58:14 23° NNW 05:02:15 63° W 05:08:21 10° S
Landsat 5 4.0 05:04:23 10° SSE 05:08:49 64° ENE 05:12:32 15° N
SJ 16-02 2.9 05:07:03 10° SSE 05:11:03 36° ESE 05:15:04 10° NE
ADEOS 4.4 05:09:20 10° NNE 05:14:26 52° E 05:19:30 10° S
BREEZE-M DEB (TANK) 3.7 05:16:52 33° N 05:17:18 35° N 05:23:19 10° ENE
CZ-4C R/B 3.1 05:21:51 10° SSE 05:24:56 61° ENE 05:26:28 26° N
Meteor 2-8 Rocket 4.3 05:18:59 10° N 05:25:09 83° W 05:31:15 10° S
SKYMED 2 3.6 05:24:44 10° S 05:29:00 58° W 05:31:28 24° NNW
MOS 1-B Rocket 4.2 05:23:30 10° S 05:29:31 47° W 05:33:51 16° NNW
SJ-12 4.1 05:27:35 10° N 05:31:32 45° WNW 05:35:29 10° SW
CENTAUR R/B 3.7 05:31:36 22° NW 05:33:01 24° NNW 05:38:47 10° NNE
CZ-2C R/B 3.8 05:28:44 10° NNE 05:33:34 53° E 05:38:36 10° S
Cosmos 2180 Rocket 4.4 05:29:10 10° NNW 05:35:18 72° W 05:41:22 10° S
Cosmos 783 Rocket 4.4 05:31:03 14° NNW 05:35:30 85° WSW 05:40:42 10° SSE
Cosmos 1503 Rocket 4.2 05:32:56 10° SW 05:38:03 49° WNW 05:43:14 10° N
ATLAS 5 CENTAUR R/B 1.4 05:35:06 10° SSW 05:38:51 76° SE 05:43:04 10° NE
CZ-4B R/B 3.5 05:37:55 10° NNE 05:41:24 49° E 05:44:54 10° S
Meteor 1-27 Rocket 3.8 05:36:49 10° N 05:42:30 81° E 05:48:17 10° SSE
Cosmos 1151 Rocket 3.8 05:42:25 28° W 05:42:48 29° W 05:46:33 10° SSW
H-2A R/B 3.2 05:38:53 10° SE 05:42:56 43° ENE 05:47:04 10° N
Cosmos 1777 Rocket 4.0 05:40:09 10° SSW 05:45:22 89° WNW 05:50:39 10° NNE
Meteor PRIRODA 3.9 05:42:39 10° NNE 05:46:16 68° ESE 05:49:53 10° S
SL-8 R/B 3.8 05:45:02 26° WNW 05:47:37 61° SSW 05:52:19 10° SE
Cosmos 773 Rocket 3.9 05:45:01 11° NNW 05:50:02 71° WSW 05:55:09 10° S
Cosmos 1340 Rocket 2.8 05:49:54 10° S 05:53:50 86° ESE 05:57:52 10° N
Okean 3 Rocket 4.4 05:50:32 10° SW 05:54:28 29° WNW 05:58:25 10° NNW
Cosmos 1515 4.5 05:51:00 10° N 05:54:44 53° E 05:58:27 10° SSE
SL-27 R/B 2.5 05:54:53 18° NNW 05:57:22 55° WSW 06:00:48 10° S
NOSS 2 (A) 4.4 05:59:54 19° NNW 06:01:36 63° NE 06:03:59 10° SE
ATLAS 3B R/B 2.7 05:55:39 10° SSW 06:02:09 88° SE 06:09:01 10° NE
DMSP B5D2-2 4.0 05:57:02 10° S 06:02:14 77° WSW 06:07:28 10° NNW
Envisat 3.8 05:59:53 10° N 06:04:12 28° WNW 06:08:28 10° SW
Meteor 1-25 Rocket 4.4 06:03:09 10° S 06:08:45 76° E 06:14:20 10° NNE
Cosmos 158 Rocket 4.1 06:06:12 10° NNW 06:11:22 80° ENE 06:16:38 10° SSE
Cosmos 1939 Rocket 2.7 06:11:19 10° NNE 06:15:15 87° WNW 06:19:07 10° SSW
Cosmos 2297 Rocket 3.5 06:10:05 10° N 06:15:21 38° ENE 06:20:35 10° SE
Cosmos 1174 3.6 06:13:06 10° WSW 06:15:53 36° NW 06:18:49 10° NNE
COSMO-SKYMED 1 4.0 06:14:21 10° SW 06:17:21 18° W 06:20:04 11° NW
Cosmos 2369 Rocket 3.7 06:16:09 13° WNW 06:18:29 16° NW 06:21:51 10° N
Meteor 1-31 Rocket 4.2 06:17:24 10° NNW 06:20:04 18° WNW 06:22:44 10° WSW
CZ-4B R/B 1.9 06:20:47 10° SSE 06:24:03 59° ENE 06:27:16 10° N
Cosmos 1607 4.2 06:18:13 10° NNW 06:24:28 70° NE 06:30:35 10° SE
SL-4 R/B 3.0 06:21:55 10° SSW 06:25:17 44° SE 06:28:52 10° ENE
USA 215 3.4 06:20:31 10° SE 06:27:01 67° SW 06:33:31 10° NW
Okean 1 3.4 06:26:30 10° N 06:30:27 80° E 06:34:23 10° S
CZ-2C R/B 4.1 06:29:36 10° SW 06:33:12 18° W 06:36:47 10° NW
FALCON 9 R/B 4.5 06:14:45 10° W 06:33:16 38° SW 06:39:13 10° SSE
DELTA 2 R/B (1) 4.0 06:28:17 10° W 06:33:43 59° S 06:39:10 10° ESE
CZ-2D R/B 3.6 06:30:53 10° NNE 06:34:40 71° E 06:38:26 10° S
Geosat FO 4.4 06:34:10 10° SSE 06:37:27 67° WSW 06:40:46 10° NNW
NOAA 12 4.3 06:34:17 10° N 06:39:20 49° WNW 06:44:21 10° SW
Cosmos 1743 Rocket 4.3 06:35:36 10° SW 06:39:31 32° WNW 06:43:26 10° NNW
Cosmos 990 Rocket 4.3 06:35:36 10° SSW 06:40:49 74° ESE 06:46:04 10° NNE
FengYun 1-2 T 4.3 06:35:25 10° N 06:40:49 61° WNW 06:46:12 10° SSW
Cosmos 2228 Rocket 3.4 06:38:42 10° NNW 06:43:03 49° W 06:47:24 10° SSW
Lacrosse 5 3.5 06:39:46 10° SSW 06:44:30 40° SE 06:49:15 10° ENE
CORIOLIS 4.2 06:41:27 10° N 06:46:55 74° WNW 06:52:20 10° SSW
Meteor 2-4 Rocket 4.3 06:42:23 10° N 06:48:19 67° ENE 06:54:05 10° SSE
